Regional Weather Roundup
Issued by NWS

Home | Current Version | Previous Version | Graphics & Text | Print | Product List | Glossary On
Versions: 1 2 3 4 5 6 7 8 9 10 11 12 13 14 15 16 17 18 19 20 21 22 23 24 25 26 27 28 29 30 31 32 33 34 35 36 37 38 39 40 41 42 43 44 45 46 47 48 49 50
147
ASUS45 KABQ 231810
RWRNM
NEW MEXICO REGIONAL WEATHER ROUNDUP
NATIONAL WEATHER SERVICE ALBUQUERQUE NM
1200 PM MDT FRI JUN 23 2017

NOTE: "FAIR" MEANS FEW OR NO CLOUDS BELOW 12,000 FEET AGL WITH NO
       SIGNIFICANT WEATHER OR OBSTRUCTIONS TO VISION.

      THIS PRODUCT IS RELEASED AS TWO VERSIONS.  ONE VERSION NEAR
      THE TOP OF THE HOUR CONTAINING PRELIMINARY DATA FROM ALBUQUERQUE
      AND OTHER STATIONS.  A FINAL VERSION WITH ADDITIONAL DATA IS
      ISSUED ABOUT 10 MINUTES AFTER THE HOUR.

NMZ501-503-504-510>518-231900-
NORTHWEST PLATEAU/NORTHCENTRAL MOUNTAINS

CITY           SKY/WX    TMP DP  RH WIND       PRES   REMARKS
FARMINGTON     FAIR      90  25   9 SW18G26   30.08F
6HR MIN TEMP:  60; 6HR MAX TEMP:  90;

LOS ALAMOS     FAIR      81  31  16 S6        30.23F
SANTA FE       FAIR      87  42  20 SE8       30.16F
6HR MIN TEMP:  58; 6HR MAX TEMP:  88;

TAOS           FAIR      82  30  15 SW9       30.21
ANGEL FIRE     FAIR      71  49  46 SE13G20   30.34F

$$
NMZ402-403-502-505>509-231900-
WESTCENTRAL MOUNTAINS/SOUTHWEST MOUNTAINS

CITY           SKY/WX    TMP DP  RH WIND       PRES   REMARKS
GALLUP         FAIR      87  25  10 CALM      30.20F
6HR MIN TEMP:  50; 6HR MAX TEMP:  88;

GRANTS         FAIR      90  22   8 N13G21    30.21S
SILVER CITY    FAIR      98  28   8 NW7       30.08S

$$
NMZ407-409-411-412-231900-
SOUTHERN DESERTS

CITY           SKY/WX    TMP DP  RH WIND       PRES   REMARKS
DEMING         FAIR     100  30   8 W6        29.97F
6HR MIN TEMP:  72; 6HR MAX TEMP: 101;

LAS CRUCES     FAIR     102  30   8 N14G20    29.97S HX  95
HOLLOMAN AFB   FAIR     103  31   8 N20G25    29.93F HX  96
ALAMOGORDO     FAIR     102  32   8 N17       29.93F HX  96
T OR C         FAIR      98  28   8 NE18      30.02F
6HR MIN TEMP:  79; 6HR MAX TEMP:  99;


$$
NMZ519>523-231900-
CENTRAL VALLEYS/CENTRAL HIGHLANDS

CITY           SKY/WX    TMP DP  RH WIND       PRES   REMARKS
ALBUQUERQUE    FAIR      90  28  11 N8        30.10S
6HR MIN TEMP:  72; 6HR MAX TEMP:  91;

DOUBLE EAGLE   PTSUNNY   90  30  12 VRB5      30.14S
MORIARTY ARPT  FAIR      87  46  24 CALM      30.19S
6HR MIN TEMP:  52; 6HR MAX TEMP:  87;

CLINES CORNERS FAIR      77  50  38 E15       30.26R
6HR MIN TEMP:  59; 6HR MAX TEMP:  77;

BELEN          FAIR      91  30  11 NE5       30.08F
6HR MIN TEMP:  67; 6HR MAX TEMP:  91;

SOCORRO        FAIR      96  28   8 N14       30.05S
6HR MIN TEMP:  75; 6HR MAX TEMP:  96;


$$
NMZ524>526-539-540-231900-
SOUTHCENTRAL MOUNTAINS

CITY           SKY/WX    TMP DP  RH WIND       PRES   REMARKS
RUIDOSO        FAIR      86  41  20 N10G18    30.22R

$$
NMZ527>531-231900-
NORTHEAST HIGHLANDS/NORTHEAST PLAINS

CITY           SKY/WX    TMP DP  RH WIND       PRES   REMARKS
LAS VEGAS      PTSUNNY   77  51  40 E14G21    30.27S
6HR MIN TEMP:  52; 6HR MAX TEMP:  77;

RATON          CLOUDY    65  50  58 NE18      30.27R
6HR MIN TEMP:  53; 6HR MAX TEMP:  70;

CLAYTON        PTSUNNY   69  45  41 NE25G33   30.23S
6HR MIN TEMP:  59; 6HR MAX TEMP:  69;


$$
NMZ532>537-231900-
EASTCENTRAL PLAINS

CITY           SKY/WX    TMP DP  RH WIND       PRES   REMARKS
TUCUMCARI      PTSUNNY   78  58  49 NE25G37   30.11R
6HR MIN TEMP:  65; 6HR MAX TEMP:  83;

CANNON AFB     FAIR      81  60  49 NE24      30.09R
6HR MIN TEMP:  67; 6HR MAX TEMP:  84;

CLOVIS AIRPORT FAIR      80  61  52 NE26G32   30.09R

$$
NMZ028-029-538-231900-
SOUTHEAST PLAINS

CITY           SKY/WX    TMP DP  RH WIND       PRES   REMARKS
ROSWELL        FAIR      95  55  26 N15       29.93F
6HR MIN TEMP:  74; 6HR MAX TEMP:  95;

ARTESIA        FAIR      95  57  28 NE13      29.92S
CARLSBAD       FAIR      97  57  26 N10G18    29.88R HX  96
6HR MIN TEMP:  74; 6HR MAX TEMP:  97;

HOBBS          SUNNY    100  46  16 SE14G20   29.92S HX  96


$$




USA.gov is the U.S. government's official web portal to all federal, state and local government web resources and services.